Location: Unspecified
(0.0000°N, 0.0000°E)
Time: 16:30:53
(UTC+00:00)

ATLAS 5 CENTAUR DEB - Pass Details

Date: 13 March 2026
Orbit: 8253 x 35273 km, 19.8° (Epoch: 17 April)

Event Time Altitude Azimuth Distance (km) Brightness Sun altitude
Rises 13:02:42 0° 283° (WNW) 13,186 ? 76.4°
Reaches altitude 10° 13:10:27 10° 280° (W) 12,322 ? 74.5°
Maximum altitude 22:41:17 84° 95° (E) 27,901 ? -67.8°
Enters shadow 23:03:59 83° 70° (ENE) 25,992 ? -73.5°
Exits shadow 00:09:36 69° 51° (NE) 19,449 ? -87.4°
Drops below altitude 10° 01:27:36 10° 66° (ENE) 14,005 ? -70.3°
Sets 01:36:18 0° 69° (ENE) 14,287 ? -68.1°
